Vorticity
1 2 4 4 5 8 7 -8 2 2 1 -6 6 14 6 10 8 9 13 17 11 7 10 12 12 10 9 12 8 3 8 5 6 9 8 11 9 8 12 14 6 6 6 -2 -3 6 8 6 10
3 3 3 5 5 6 6 6 7 -5 0 -4 -2 11 6 8 7 17 10 4 4 5 10 11 7 8 8 8 6 1 3 5 8 8 11 10 7 10 12 12 11 0 9 7 2 9 5 9 7
5 5 4 6 7 6 11 11 1 14 4 8 9 7 8 11 7 12 13 5 3 2 6 7 5 6 5 8 5 8 6 3 9 13 10 10 10 11 7 7 11 -0 6 6 9 14 2 8 4
5 6 5 5 9 1 13 5 4 3 6 11 11 7 9 6 8 10 7 7 5 12 20 14 9 8 5 6 6 6 10 8 6 15 12 12 7 8 6 14 7 11 4 7 11 5 9 8 2
6 5 5 5 10 6 -12 -4 13 -11 -5 4 9 6 4 7 6 9 7 8 6 1 5 13 14 15 10 6 7 6 11 6 9 21 8 15 26 7 5 19 -1 11 6 3 14 4 6 3 -4
6 4 7 6 4 -0 9 8 1 8 9 8 8 4 6 4 10 8 11 5 2 8 9 10 3 13 18 19 9 6 16 8 16 3 57 44 12 6 3 17 -1 12 8 17 5 10 -3 -0 -4
6 3 6 5 7 8 21 2 -3 8 9 8 10 6 6 -0 6 7 8 10 5 3 6 11 9 12 18 15 11 4 18 22 24 27 31 -29 38 16 8 2 7 2 18 9 9 5 9 5 7
5 0 6 8 8 14 -1 -0 6 6 6 10 5 6 4 1 7 7 8 7 9 9 2 7 9 10 9 12 9 10 23 4 21 8 36 58 -34 11 5 5 4 -6 -3 9 10 -7 8 4 4
5 3 7 13 12 9 -2 8 1 13 11 6 8 5 5 3 4 8 6 8 8 8 3 10 6 9 0 3 10 8 10 9 22 35 24 -13 8 0 -1 3 6 21 -9 35 28 6 5 6 3
4 1 11 9 10 -0 -5 1 -1 0 2 10 5 12 3 7 -2 8 7 9 13 5 12 6 5 7 6 2 7 6 17 11 18 9 58 27 -2 19 20 -5 3 -4 7 -0 -1 7 2 -0 6
6 7 9 11 2 2 8 1 3 -2 5 8 5 2 2 5 4 1 5 15 15 17 15 7 9 9 5 8 7 7 2 16 9 17 -4 0 -1 21 1 2 -0 20 8 15 -2 21 9 7 6
1 6 5 7 8 5 2 4 11 -0 5 6 9 4 6 5 9 2 4 7 16 6 9 10 8 10 6 7 7 6 7 12 10 10 37 -6 -11 16 2 19 8 19 8 -1 1 4 2 11 11
5 8 6 5 6 4 2 4 8 4 4 6 5 7 6 4 6 7 4 8 18 8 12 9 10 8 9 13 9 8 6 4 15 12 10 -3 11 6 10 5 -2 -5 14 18 11 4 4 12 6
11 6 6 4 8 6 1 4 3 16 2 7 8 5 4 4 5 7 9 11 16 9 9 4 6 14 9 17 7 8 10 3 4 8 10 10 9 5 4 13 22 -2 1 8 11 4 -4 12 8
10 6 7 9 3 8 5 2 5 12 3 7 11 5 5 6 5 8 8 10 16 10 6 13 9 9 12 9 7 5 13 13 4 5 4 12 5 9 17 10 -12 12 10 5 4 16 22 27 0
13 10 8 7 6 12 10 8 9 8 8 12 5 7 6 8 8 9 6 8 14 12 8 8 10 10 10 8 10 8 8 7 10 9 8 6 7 9 7 22 -6 -4 4 3 7 2 -10 5 6
12 8 7 13 9 7 6 8 10 4 7 6 4 5 3 6 10 6 8 8 16 12 7 7 7 8 11 13 13 15 11 7 5 5 6 10 9 5 5 13 13 6 30 -1 3 4 6 -1 12
14 9 9 16 16 17 7 10 4 1 10 9 7 6 6 7 9 6 6 9 16 10 7 9 7 9 11 11 19 19 14 13 9 11 9 13 8 11 4 19 21 14 17 -1 6 8 -2 -2 -29
6 9 -2 2 8 14 12 0 13 -4 8 8 4 6 7 7 7 6 6 9 14 11 11 6 6 10 9 5 23 14 14 18 17 14 16 23 20 12 26 -2 23 26 5 -3 1 -7 39 24 -9
11 11 25 14 25 10 22 4 6 11 1 4 2 7 9 9 5 1 10 9 12 9 8 5 5 7 7 8 15 18 17 20 17 10 17 7 9 10 15 26 18 20 25 9 20 38 -6 -3 18
8 3 32 2 22 -1 4 -1 5 4 2 0 8 6 4 6 6 5 12 6 12 7 6 3 5 5 5 7 9 16 16 8 7 16 23 24 28 11 18 8 6 32 7 2 -4 4 1 11 4
17 4 32 6 -0 4 9 -12 10 8 6 3 4 3 13 2 3 6 9 6 14 8 4 5 7 7 5 7 8 8 7 10 19 22 9 6 21 15 17 25 16 -9 6 -0 23 23 27 31 27
6 18 16 5 9 14 2 10 -15 -4 3 6 -1 8 -0 4 6 13 9 8 17 7 6 8 6 6 6 8 9 9 9 6 8 10 19 1 31 4 -4 16 17 30 57 22 11 19 22 14 9
2 17 21 21 17 2 22 0 1 5 12 4 20 7 7 1 3 9 17 5 14 9 9 7 6 6 6 13 7 9 9 9 10 8 9 19 9 -6 10 4 2 3 8 5 1 4 9 7 7
27 8 27 12 4 11 16 -1 -0 6 5 2 9 16 0 12 1 10 6 12 9 10 6 3 1 4 6 9 10 11 10 11 12 13 16 18 16 1 3 6 1 -0 6 3 1 7 8 6 3
19 10 11 23 7 12 8 6 2 14 13 7 8 20 -8 3 3 6 8 10 8 13 6 -1 1 6 7 4 8 0 1 6 8 13 15 15 26 17 10 7 5 12 17 14 11 10 13 8 5
19 -1 23 8 20 10 17 13 -1 2 17 5 15 1 -1 6 1 3 9 10 10 11 10 6 12 7 6 5 4 5 9 9 9 6 9 9 12 10 10 12 15 15 16 13 11 16 17 14 13
29 14 8 1 9 29 18 12 25 16 24 11 12 9 9 4 0 9 10 8 9 9 9 14 6 6 7 6 3 7 6 7 5 7 8 10 9 8 10 8 9 9 8 7 9 10 10 12 16
18 7 19 1 -1 0 17 8 2 23 11 14 -5 2 9 12 6 7 12 13 11 7 7 8 12 7 6 6 4 3 4 6 3 6 8 5 5 10 7 9 3 15 11 13 10 8 7 11 8
12 -10 -1 23 27 -0 14 14 40 8 -2 11 17 6 2 -1 1 5 4 10 6 8 7 4 6 7 5 6 7 4 2 3 1 3 4 3 5 9 9 11 7 13 4 1 11 14 14 10 10
Height
5833 5832 5831 5832 5834 5832 5829 5827 5822 5821 5821 5824 5827 5825 5822 5819 5817 5820 5817 5814 5813 5811 5810 5809 5807 5805 5804 5805 5805 5805 5806 5806 5805 5805 5806 5807 5809 5812 5815 5818 5822 5825 5827 5831 5833 5835 5838 5840 5841
5828 5828 5828 5828 5830 5829 5825 5820 5818 5818 5819 5821 5822 5820 5817 5811 5814 5815 5812 5810 5808 5807 5805 5804 5801 5801 5801 5800 5800 5800 5801 5801 5800 5799 5800 5800 5804 5807 5810 5813 5816 5820 5822 5825 5829 5831 5835 5837 5838
5823 5824 5824 5824 5826 5825 5820 5818 5814 5816 5818 5818 5816 5815 5813 5812 5810 5809 5809 5807 5805 5803 5802 5799 5796 5796 5795 5795 5795 5795 5795 5794 5792 5793 5793 5795 5797 5802 5805 5807 5810 5814 5818 5821 5823 5827 5830 5834 5836
5819 5819 5819 5820 5822 5819 5817 5813 5811 5813 5813 5814 5814 5810 5808 5808 5808 5803 5801 5800 5799 5797 5795 5794 5792 5791 5790 5789 5788 5789 5788 5787 5785 5785 5783 5786 5791 5796 5800 5803 5805 5809 5814 5816 5819 5822 5826 5829 5832
5814 5814 5813 5815 5817 5815 5811 5808 5810 5811 5807 5807 5809 5807 5800 5806 5805 5800 5797 5795 5795 5792 5790 5787 5786 5786 5784 5782 5782 5781 5781 5780 5780 5781 5781 5782 5778 5789 5793 5798 5802 5806 5810 5813 5815 5818 5821 5826 5827
5808 5807 5808 5810 5811 5809 5807 5802 5807 5807 5807 5800 5804 5803 5797 5801 5799 5795 5794 5791 5790 5787 5784 5782 5781 5779 5777 5776 5776 5774 5775 5771 5771 5774 5774 5770 5775 5783 5786 5793 5798 5802 5806 5809 5811 5814 5817 5821 5822
5803 5800 5802 5802 5805 5804 5802 5797 5800 5802 5802 5800 5799 5798 5794 5798 5795 5791 5788 5787 5785 5783 5780 5777 5775 5773 5772 5771 5770 5768 5765 5765 5762 5764 5769 5765 5765 5773 5780 5787 5791 5796 5801 5805 5807 5810 5813 5816 5819
5797 5793 5793 5799 5801 5803 5798 5794 5793 5795 5796 5796 5794 5794 5788 5792 5790 5790 5786 5784 5779 5776 5776 5774 5771 5768 5767 5765 5765 5762 5759 5757 5756 5754 5755 5761 5769 5772 5776 5782 5784 5791 5795 5800 5803 5806 5809 5813 5815
5788 5786 5788 5796 5794 5792 5792 5791 5788 5790 5792 5790 5790 5791 5787 5789 5785 5784 5782 5780 5774 5770 5770 5770 5767 5765 5763 5762 5761 5757 5755 5754 5751 5750 5753 5761 5765 5769 5773 5777 5783 5786 5789 5794 5798 5800 5805 5809 5810
5778 5780 5786 5787 5786 5783 5782 5785 5783 5784 5784 5787 5785 5784 5784 5784 5782 5780 5779 5778 5770 5765 5765 5765 5763 5761 5760 5758 5756 5754 5753 5751 5754 5753 5751 5750 5760 5767 5770 5775 5778 5782 5786 5790 5794 5798 5802 5805 5807
5774 5772 5778 5780 5780 5777 5777 5779 5777 5778 5779 5780 5779 5777 5777 5777 5777 5776 5774 5776 5769 5764 5761 5760 5759 5757 5755 5755 5753 5752 5749 5750 5752 5748 5748 5741 5757 5763 5768 5771 5773 5777 5782 5785 5790 5794 5798 5801 5803
5761 5764 5768 5775 5773 5770 5769 5775 5775 5770 5777 5776 5775 5774 5772 5770 5771 5772 5769 5768 5763 5760 5757 5754 5753 5753 5751 5750 5749 5748 5747 5747 5750 5752 5749 5751 5755 5760 5762 5767 5770 5772 5776 5781 5785 5789 5793 5795 5798
5749 5754 5758 5762 5764 5763 5763 5766 5769 5768 5772 5771 5769 5771 5772 5768 5764 5764 5762 5760 5759 5756 5753 5750 5749 5748 5747 5745 5745 5746 5746 5746 5747 5750 5750 5749 5753 5757 5760 5763 5766 5768 5772 5776 5781 5784 5787 5790 5794
5744 5745 5748 5750 5751 5756 5755 5758 5760 5766 5765 5764 5765 5766 5766 5767 5764 5760 5760 5758 5755 5752 5748 5747 5746 5745 5744 5742 5741 5741 5742 5743 5744 5744 5747 5748 5751 5754 5755 5758 5763 5765 5767 5772 5776 5779 5782 5787 5788
5732 5734 5739 5741 5743 5748 5747 5749 5753 5761 5758 5759 5760 5761 5761 5761 5760 5757 5756 5754 5750 5750 5746 5743 5741 5740 5739 5738 5738 5738 5738 5739 5740 5742 5744 5746 5748 5750 5752 5754 5758 5760 5761 5767 5770 5773 5777 5782 5783
5720 5722 5725 5732 5742 5742 5738 5742 5751 5753 5751 5753 5754 5754 5757 5755 5754 5753 5751 5750 5745 5747 5742 5739 5738 5736 5735 5734 5733 5731 5734 5736 5736 5735 5738 5740 5742 5743 5746 5748 5752 5753 5754 5761 5766 5769 5773 5779 5779
5709 5712 5719 5727 5731 5733 5733 5735 5745 5745 5742 5746 5749 5748 5749 5750 5749 5747 5746 5745 5743 5742 5739 5735 5734 5733 5732 5730 5730 5729 5726 5727 5729 5730 5732 5735 5735 5735 5737 5741 5742 5745 5748 5756 5760 5765 5768 5772 5774
5706 5706 5711 5718 5729 5725 5726 5725 5735 5737 5735 5739 5741 5742 5742 5745 5747 5743 5742 5739 5738 5738 5736 5732 5731 5729 5728 5726 5724 5722 5722 5722 5723 5725 5726 5728 5728 5729 5731 5733 5736 5740 5744 5751 5754 5759 5763 5766 5768
5692 5690 5693 5702 5714 5710 5714 5713 5724 5727 5728 5731 5734 5737 5738 5736 5739 5740 5737 5734 5733 5734 5732 5729 5727 5727 5726 5723 5720 5718 5716 5717 5718 5719 5720 5721 5721 5723 5726 5728 5732 5735 5738 5745 5748 5751 5756 5759 5761
5676 5682 5689 5693 5707 5702 5707 5709 5713 5717 5722 5725 5726 5728 5730 5730 5731 5734 5733 5731 5730 5730 5728 5727 5726 5725 5723 5722 5718 5716 5714 5714 5715 5715 5715 5716 5716 5717 5721 5725 5728 5731 5735 5739 5743 5745 5749 5753 5754
5670 5676 5682 5686 5694 5686 5692 5696 5701 5707 5715 5720 5722 5722 5722 5724 5724 5728 5729 5726 5727 5727 5726 5724 5723 5722 5720 5720 5717 5715 5713 5712 5714 5715 5713 5714 5712 5714 5714 5720 5724 5726 5730 5732 5735 5739 5742 5745 5746
5659 5669 5669 5668 5675 5683 5686 5685 5692 5700 5706 5711 5715 5717 5720 5721 5719 5722 5724 5722 5723 5723 5723 5721 5720 5720 5718 5717 5715 5713 5712 5711 5712 5712 5712 5711 5708 5710 5711 5715 5718 5722 5725 5727 5730 5732 5735 5737 5739
5649 5656 5656 5662 5671 5675 5680 5678 5689 5696 5700 5703 5708 5712 5716 5717 5715 5719 5719 5718 5719 5719 5721 5718 5718 5717 5716 5715 5714 5712 5710 5709 5708 5707 5706 5707 5707 5708 5710 5713 5716 5718 5720 5723 5726 5729 5731 5733 5736
5643 5647 5651 5658 5662 5665 5679 5670 5679 5692 5697 5699 5700 5703 5707 5711 5710 5714 5714 5714 5715 5716 5717 5715 5715 5715 5713 5712 5712 5710 5709 5707 5706 5705 5704 5703 5706 5707 5709 5711 5714 5716 5719 5719 5722 5726 5727 5728 5729
5635 5639 5644 5651 5653 5658 5670 5669 5671 5690 5692 5694 5695 5694 5699 5704 5704 5708 5711 5710 5711 5712 5713 5712 5712 5712 5711 5709 5710 5709 5708 5707 5705 5704 5703 5702 5704 5706 5708 5710 5713 5715 5717 5719 5721 5723 5723 5722 5723
5630 5634 5638 5641 5645 5650 5662 5655 5666 5683 5686 5688 5687 5688 5693 5695 5697 5700 5705 5705 5706 5707 5708 5709 5708 5709 5708 5707 5707 5708 5707 5707 5706 5704 5703 5702 5703 5705 5707 5709 5711 5710 5712 5714 5715 5716 5717 5717 5717
5624 5626 5637 5637 5641 5645 5653 5656 5669 5672 5677 5681 5682 5685 5687 5688 5690 5694 5699 5699 5701 5702 5703 5704 5704 5704 5705 5705 5705 5704 5705 5704 5704 5705 5704 5704 5704 5705 5705 5706 5706 5707 5709 5709 5710 5711 5712 5713 5715
5617 5622 5627 5631 5636 5638 5646 5654 5661 5664 5669 5673 5677 5678 5681 5681 5683 5686 5692 5694 5694 5697 5698 5699 5700 5699 5701 5701 5702 5702 5701 5701 5701 5702 5704 5704 5704 5704 5705 5706 5706 5706 5705 5705 5706 5707 5708 5710 5711
5611 5615 5620 5626 5631 5635 5641 5647 5649 5655 5658 5662 5666 5668 5671 5677 5679 5680 5683 5688 5688 5690 5692 5693 5695 5695 5695 5697 5698 5699 5699 5699 5699 5699 5700 5701 5702 5703 5703 5702 5703 5703 5704 5704 5704 5705 5706 5707 5707
5605 5609 5616 5620 5626 5630 5635 5641 5638 5642 5646 5654 5659 5660 5663 5667 5669 5669 5673 5679 5681 5683 5686 5686 5688 5690 5691 5691 5694 5694 5695 5696 5696 5696 5696 5696 5697 5698 5698 5698 5698 5697 5699 5699 5700 5699 5701 5701 5700